This demonstration page uses our WeatherBlox Daily Observations layout. Learn more.

41.55636, -103.73856

Hourly Observations for May 25, 2015

Temp ( °F °C ) Dew Point ( °F °C ) Humidity (%) Winds ( mph kmh ) Pressure ( in mb ) Visibility ( mi km ) Precip ( " mm )
12:35 am 00:35 Cloudy 54 12 50 10 88 88 ESE 6 9 29.8 1009 10 16.09344 0 0
12:53 am 00:53 Cloudy with Light Rain 52 11 48 9 88 88 E 5 7 29.77 1008 10 16.09344 0.001 0.001
1:53 am 01:53 Cloudy with Light Rain 52 11 50 10 94 94 WSW 3 6 29.77 1008 10 16.09344 0.001 0.001
2:12 am 02:12 Cloudy with Light Rain 52 11 50 10 94 94 SW 6 9 29.77 1008 10 16.09344 0 0
2:23 am 02:23 Cloudy 52 11 50 10 94 94 SW 7 11 29.77 1008 10 16.09344 0.01 0.254
2:53 am 02:53 Cloudy 52 11 50 10 94 94 W 7 11 29.77 1008 10 16.09344 0.01 0.254
3:53 am 03:53 Cloudy 52 11 52 11 100 100 WNW 9 15 29.74 1007 10 16.09344 0.001 0.001
4:31 am 04:31 Cloudy 52 11 50 10 94 94 NW 9 15 29.77 1008 10 16.09344 0 0
4:53 am 04:53 Cloudy with Light Rain 52 11 50 10 94 94 NW 7 11 29.77 1008 10 16.09344 0.001 0.001
5:07 am 05:07 Cloudy with Light Rain 52 11 50 10 94 94 NW 8 13 29.77 1008 10 16.09344 0.001 0.001
5:53 am 05:53 Cloudy with Light Rain 52 11 48 9 88 88 NW 9 15 29.77 1008 7 11.265408 0.04 1.016
6:53 am 06:53 Cloudy with Light Rain 50 10 48 9 94 94 WNW 10 17 29.8 1009 10 16.09344 0.02 0.508
7:53 am 07:53 Cloudy with Light Rain 50 10 48 9 94 94 WNW 13 20 29.8 1009 6 9.656064 0.03 0.762
8:38 am 08:38 Cloudy with Light Rain 52 11 48 9 88 88 WNW 10 17 29.8 1009 5 8.04672 0 0
8:53 am 08:53 Cloudy with Light Rain 52 11 50 10 94 94 WNW 8 13 29.8 1009 6 9.656064 0.07 1.778
9:01 am 09:01 Cloudy with Light Rain 52 11 50 10 94 94 WNW 9 15 29.8 1009 6 9.656064 0.01 0.254
9:25 am 09:25 Cloudy with Rain 52 11 50 10 94 94 WNW 10 17 29.8 1009 4 6.437376 0.06 1.524
9:53 am 09:53 Cloudy with Light Rain 52 11 50 10 94 94 WNW 10 17 29.8 1009 6 9.656064 0.11 2.794
10:14 am 10:14 Cloudy with Rain 52 11 52 11 100 100 WNW 10 17 29.8 1009 5 8.04672 0 0
10:53 am 10:53 Cloudy with Light Rain 54 12 52 11 94 94 W 12 19 29.8 1009 6 9.656064 0.09 2.286
11:53 am 11:53 Cloudy with Rain 54 12 52 11 94 94 W 12 19 29.83 1010 3 4.828032 0.07 1.778
12:01 pm 12:01 Cloudy with Rain 54 12 52 11 94 94 W 13 20 29.83 1010 3 4.828032 0.03 0.762
12:32 pm 12:32 Cloudy with Rain 52 11 52 11 100 100 NW 5 7 29.83 1010 2 3.218688 0 0
12:37 pm 12:37 Cloudy with Light Rain 54 12 52 11 94 94 WNW 13 20 29.83 1010 3 4.828032 0.12 3.048
12:53 pm 12:53 Cloudy with Light Rain 54 12 52 11 94 94 W 7 11 29.83 1010 4 6.437376 0.15 3.81
1:09 pm 13:09 Cloudy with Light Rain 54 12 52 11 94 94 W 8 13 29.83 1010 6 9.656064 0.02 0.508
1:34 pm 13:34 Cloudy with Light Rain 55 13 54 12 94 94 W 12 19 29.8 1009 5 8.04672 0 0
1:53 pm 13:53 Cloudy with Light Rain 55 13 54 12 94 94 W 12 19 29.8 1009 10 16.09344 0.05 1.27
2:53 pm 14:53 Mostly Cloudy 57 14 54 12 88 88 W 10 17 29.8 1009 10 16.09344 0.01 0.254
3:53 pm 15:53 Cloudy with Nearby Thunderstorms 57 14 52 11 82 82 WSW 5 7 29.8 1009 10 16.09344 0 0
4:41 pm 16:41 Cloudy 55 13 54 12 94 94 SW 6 9 29.8 1009 10 16.09344 0.01 0.254
4:53 pm 16:53 Mostly Cloudy 55 13 52 11 88 88 SW 5 7 29.8 1009 10 16.09344 0.01 0.254
5:53 pm 17:53 Cloudy with Light Rain 55 13 54 12 94 94 SSW 7 11 29.8 1009 9 14.484096 0.01 0.254
6:53 pm 18:53 Mostly Cloudy 55 13 54 12 94 94 W 7 11 29.8 1009 10 16.09344 0.01 0.254
7:53 pm 19:53 Cloudy 54 12 52 11 94 94 NW 6 9 29.83 1010 10 16.09344 0.001 0.001
8:53 pm 20:53 Clear 52 11 50 10 94 94 NW 5 7 29.88 1012 10 16.09344 0 0
9:53 pm 21:53 Mostly Clear 50 10 48 9 94 94 NW 5 7 29.88 1012 10 16.09344 0 0
10:53 pm 22:53 Partly Cloudy 50 10 48 9 94 94 NNW 5 7 29.91 1013 10 16.09344 0 0
11:03 pm 23:03 Mostly Cloudy 50 10 48 9 94 94 NNW 3 6 29.91 1013 10 16.09344 0 0
11:53 pm 23:53 Mostly Cloudy 48 9 48 9 100 100 WNW 6 9 29.94 1014 10 16.09344 0 0

Powered by AerisWeather